Volver al catálogo

STARLINK-37555

ActivoComunicacionesSSO
NORAD 69431·PAYLOAD·🇺🇸 United States

Lanzado Jun 7, 2026 desde Vandenberg Space Force Base

Loading…

Próximos Pases (próximas 24 horas)

TLE

ActualizadoSource: CelesTrak SupGP

Época: Sep 15, 2026, 03:25 UTC

1 69431C 26126M   26258.14284722 -.00007690  00000+0 -23865-3 0  2581
2 69431  97.2845 119.4772 0001998  91.6782 317.6521 15.33449293    10

Sigue STARLINK-37555 en tiempo real con AllMySat

Download on the App Store